Starlink 5801

operational
NORAD ID: 56005 Int'l Des: 2023-042 Owner: SPXS Country: US Constellation: starlink
LEOCIRCULAR

关于 Starlink 5801

正在加载描述...

实时位置

正在加载3D地球...

即将过境

高度历史

Altitude vs Time

uPlot chart will show altitude changes over time

两行轨道根数

1 56005U 23042V 25303.00021089 -.00000279 00000-0 -56027-5 0 9995
2 56005 43.0038 46.0378 0000946 263.1715 96.9020 15.02543800143257
Epoch: Oct 30, 2025 • Age: 24 hours

当前状态

高度 562.6 km
速度 7.59 km/s
星下点 41.93°N, 70.04°E
发射日期 Mar 24, 2023
运行时间 2.6 years
类型 internet

技术详情

分类 Payload
质量 305.00 kg
干质量 290.00 kg
总质量 305.00 kg
长度 0.20 m
直径 2.80 m
跨度 9.00 m
形状 Box + pan
制造商 SPXS
平台类型 Starlink
阶段状态 In Orbit
所有者/国家 SPXS/US

大型星座

Loading constellations...